Location: Unspecified
(0.0000°N, 0.0000°E)
Time: 12:30:06
(UTC+00:00)

ARIANE 6 FM1 Upper Stage - Pass Details

Date: 25 February 2026
Orbit: 523 x 607 km, 62.0° (Epoch: 06 March)

Event Time Altitude Azimuth Distance (km) Brightness Sun altitude
Rises 19:26:14 0° 313° (NW) 2,678 6.7 -18.1°
Reaches altitude 10° 19:28:44 10° 298° (WNW) 1,804 6.0 -18.7°
Maximum altitude 19:32:00 23° 245° (WSW) 1,184 5.1 -19.5°
Drops below altitude 10° 19:35:22 10° 191° (S) 1,852 5.5 -20.3°
Sets 19:37:58 0° 176° (S) 2,769 6.3 -21.0°
